• In Österreich
  • Länderverzeichnis
  • Für 7 Tage
  • Wassertemperatur
  • Satellitenkarten
  • Wetterkarte
  • News
  • Widgets
  • user-avatar
    Anmelden

    Stündliche Wetter Durres

    Heute, 25 Februar, Sonntag

    Zeit Temperatur Niederschläge Wind Luftdruck Luftfeuchtigkeit
    00:00 +7°C° 0,1 mm 4 m/S 754 mmHg 75%
    01:00 +7°C° 0 mm 4 m/S 754 mmHg 75%
    02:00 +6°C° 0,2 mm 4 m/S 754 mmHg 75%
    03:00 +6°C° 0,2 mm 5 m/S 754 mmHg 74%
    04:00 +6°C° 0,2 mm 5 m/S 754 mmHg 74%
    05:00 +6°C° 0,6 mm 5 m/S 754 mmHg 74%
    06:00 +5°C° 0,6 mm 5 m/S 754 mmHg 74%
    07:00 +6°C° 0 mm 5 m/S 754 mmHg 78%
    08:00 +6°C° 0,8 mm 5 m/S 754 mmHg 77%
    09:00 +7°C° 0,8 mm 5 m/S 754 mmHg 75%
    10:00 +7°C° 0,8 mm 6 m/S 754 mmHg 73%
    11:00 +7°C° 0,4 mm 6 m/S 754 mmHg 73%
    12:00 +8°C° 0,4 mm 6 m/S 754 mmHg 72%
    13:00 +8°C° 0,4 mm 6 m/S 753 mmHg 72%
    14:00 +7°C° 0,8 mm 6 m/S 753 mmHg 75%
    15:00 +5°C° 0,8 mm 6 m/S 753 mmHg 78%
    16:00 +4°C° 0,8 mm 6 m/S 752 mmHg 82%
    17:00 +4°C° 1,9 mm 6 m/S 752 mmHg 81%
    18:00 +3°C° 1,9 mm 7 m/S 752 mmHg 81%
    19:00 +3°C° 1,9 mm 7 m/S 751 mmHg 81%
    20:00 +1°C° 2,1 mm 8 m/S 751 mmHg 81%
    21:00 +1°C° 2,1 mm 8 m/S 751 mmHg 82%
    22:00 0°C° 2,1 mm 9 m/S 751 mmHg 82%
    23:00 0°C° 1,2 mm 9 m/S 750 mmHg 83%

    Morgen, 26 Februar, Montag

    Zeit Temperatur Niederschläge Wind Luftdruck Luftfeuchtigkeit
    00:00 0°C° 1,2 mm 9 m/S 750 mmHg 84%
    01:00 0°C° 1,2 mm 9 m/S 750 mmHg 86%
    02:00 0°C° 0,6 mm 9 m/S 750 mmHg 86%
    03:00 0°C° 0,6 mm 9 m/S 749 mmHg 85%
    04:00 0°C° 0,6 mm 9 m/S 749 mmHg 85%
    05:00 -1°C° 0,3 mm 8 m/S 749 mmHg 86%
    06:00 -1°C° 0,3 mm 7 m/S 749 mmHg 87%
    07:00 -1°C° 0,3 mm 6 m/S 749 mmHg 89%
    08:00 +1°C° 0,1 mm 6 m/S 749 mmHg 87%
    09:00 +1°C° 0,1 mm 5 m/S 749 mmHg 86%
    10:00 +2°C° 0,1 mm 5 m/S 749 mmHg 85%
    11:00 +4°C° 0 mm 4 m/S 749 mmHg 83%
    12:00 +5°C° 0 mm 4 m/S 748 mmHg 81%
    13:00 +6°C° 0 mm 4 m/S 748 mmHg 79%
    14:00 +7°C° 0,2 mm 3 m/S 748 mmHg 80%
    15:00 +8°C° 0,2 mm 3 m/S 748 mmHg 80%
    16:00 +8°C° 0,2 mm 2 m/S 748 mmHg 80%
    17:00 +7°C° 0,8 mm 3 m/S 748 mmHg 83%
    18:00 +5°C° 0,8 mm 4 m/S 748 mmHg 87%
    19:00 +4°C° 0,8 mm 4 m/S 749 mmHg 91%
    20:00 +4°C° 0,4 mm 4 m/S 749 mmHg 91%
    21:00 +4°C° 0,4 mm 4 m/S 750 mmHg 92%
    22:00 +4°C° 0,4 mm 4 m/S 750 mmHg 93%
    23:00 +3°C° 0,4 mm 4 m/S 750 mmHg 93%

    übermorgen, 27 Februar, Dienstag

    Zeit Temperatur Niederschläge Wind Luftdruck Luftfeuchtigkeit
    00:00 +3°C° 0,4 mm 4 m/S 751 mmHg 93%
    01:00 +3°C° 0,4 mm 4 m/S 751 mmHg 93%
    02:00 +3°C° 0,5 mm 4 m/S 751 mmHg 93%
    03:00 +3°C° 0,5 mm 4 m/S 751 mmHg 93%
    04:00 +1°C° 0,5 mm 4 m/S 752 mmHg 93%
    05:00 +1°C° 0,5 mm 5 m/S 752 mmHg 92%
    06:00 +1°C° 0,5 mm 5 m/S 752 mmHg 92%
    07:00 +1°C° 0,5 mm 5 m/S 752 mmHg 91%
    08:00 +2°C° 0,4 mm 6 m/S 753 mmHg 89%
    09:00 +2°C° 0,4 mm 6 m/S 753 mmHg 87%
    10:00 +3°C° 0,4 mm 7 m/S 754 mmHg 85%
    11:00 +3°C° 0,3 mm 7 m/S 754 mmHg 83%
    12:00 +3°C° 0,3 mm 6 m/S 754 mmHg 82%
    13:00 +5°C° 0,3 mm 5 m/S 754 mmHg 81%
    14:00 +5°C° 0,1 mm 4 m/S 754 mmHg 79%
    15:00 +5°C° 0,1 mm 3 m/S 754 mmHg 78%
    16:00 +6°C° 0,1 mm 2 m/S 754 mmHg 76%
    17:00 +5°C° 0,1 mm 2 m/S 755 mmHg 79%
    18:00 +4°C° 0,1 mm 2 m/S 755 mmHg 82%
    19:00 +2°C° 0,1 mm 3 m/S 755 mmHg 85%
    20:00 +2°C° 0,3 mm 3 m/S 755 mmHg 85%
    21:00 +1°C° 0,3 mm 4 m/S 755 mmHg 84%
    22:00 +1°C° 0,3 mm 4 m/S 755 mmHg 84%
    23:00 +1°C° 0,4 mm 5 m/S 755 mmHg 85%

    28 Februar, Mittwoch

    Zeit Temperatur Niederschläge Wind Luftdruck Luftfeuchtigkeit
    00:00 +1°C° 0,4 mm 5 m/S 755 mmHg 87%
    01:00 +1°C° 0,4 mm 5 m/S 755 mmHg 88%
    02:00 +1°C° 0,2 mm 5 m/S 754 mmHg 88%
    03:00 +1°C° 0,2 mm 5 m/S 754 mmHg 87%
    04:00 +1°C° 0,2 mm 5 m/S 753 mmHg 87%
    05:00 +1°C° 0 mm 5 m/S 754 mmHg 85%
    06:00 0°C° 0 mm 5 m/S 754 mmHg 84%
    07:00 0°C° 0 mm 4 m/S 754 mmHg 82%
    08:00 +3°C° 0,2 mm 4 m/S 754 mmHg 81%
    09:00 +4°C° 0,2 mm 4 m/S 754 mmHg 81%
    10:00 +5°C° 0,2 mm 4 m/S 754 mmHg 80%
    11:00 +5°C° 0,2 mm 5 m/S 755 mmHg 80%
    12:00 +4°C° 0,2 mm 6 m/S 755 mmHg 81%
    13:00 +4°C° 0,2 mm 7 m/S 756 mmHg 81%
    14:00 +4°C° 0 mm 7 m/S 756 mmHg 79%
    15:00 +4°C° 0 mm 7 m/S 757 mmHg 77%
    16:00 +4°C° 0 mm 7 m/S 758 mmHg 74%
    17:00 +2°C° 0 mm 7 m/S 759 mmHg 77%
    18:00 0°C° 0 mm 7 m/S 760 mmHg 79%
    19:00 -1°C° 0 mm 6 m/S 760 mmHg 81%
    20:00 -1°C° 0 mm 6 m/S 761 mmHg 81%
    21:00 -1°C° 0 mm 5 m/S 762 mmHg 81%
    22:00 -1°C° 0 mm 5 m/S 762 mmHg 81%
    23:00 -1°C° 0 mm 4 m/S 763 mmHg 81%

    1 März, Donnerstag

    Zeit Temperatur Niederschläge Wind Luftdruck Luftfeuchtigkeit
    00:00 -2°C° 0 mm 4 m/S 763 mmHg 82%
    01:00 -1°C° 0 mm 3 m/S 763 mmHg 82%
    02:00 -1°C° 0 mm 3 m/S 763 mmHg 81%
    03:00 -1°C° 0 mm 3 m/S 763 mmHg 81%
    04:00 -1°C° 0 mm 3 m/S 763 mmHg 81%
    05:00 -1°C° 0 mm 3 m/S 763 mmHg 79%
    06:00 -1°C° 0 mm 3 m/S 763 mmHg 78%
    07:00 -1°C° 0 mm 3 m/S 763 mmHg 77%
    08:00 +1°C° 0 mm 3 m/S 763 mmHg 74%
    09:00 +3°C° 0 mm 3 m/S 763 mmHg 72%
    10:00 +5°C° 0 mm 3 m/S 763 mmHg 69%
    11:00 +7°C° 0,1 mm 3 m/S 762 mmHg 68%
    12:00 +7°C° 0,1 mm 3 m/S 762 mmHg 68%
    13:00 +7°C° 0,1 mm 4 m/S 761 mmHg 67%
    14:00 +6°C° 0,2 mm 4 m/S 761 mmHg 70%
    15:00 +6°C° 0,2 mm 5 m/S 760 mmHg 73%
    16:00 +6°C° 0,2 mm 5 m/S 760 mmHg 76%
    17:00 +6°C° 0,3 mm 5 m/S 760 mmHg 79%
    18:00 +4°C° 0,3 mm 6 m/S 760 mmHg 81%
    19:00 +4°C° 0,3 mm 6 m/S 759 mmHg 83%
    20:00 +4°C° 0,3 mm 6 m/S 759 mmHg 84%
    21:00 +4°C° 0,3 mm 6 m/S 759 mmHg 85%
    22:00 +4°C° 0,3 mm 7 m/S 758 mmHg 85%
    23:00 +5°C° 0,2 mm 7 m/S 758 mmHg 85%

    2 März, Freitag

    Zeit Temperatur Niederschläge Wind Luftdruck Luftfeuchtigkeit
    00:00 +5°C° 0,2 mm 8 m/S 757 mmHg 86%
    01:00 +5°C° 0,2 mm 8 m/S 757 mmHg 86%
    02:00 +5°C° 0,6 mm 8 m/S 756 mmHg 87%
    03:00 +5°C° 0,6 mm 9 m/S 756 mmHg 88%
    04:00 +5°C° 0,6 mm 9 m/S 755 mmHg 90%
    05:00 +5°C° 0,8 mm 10 m/S 755 mmHg 90%
    06:00 +6°C° 0,8 mm 10 m/S 754 mmHg 90%
    07:00 +6°C° 0,8 mm 10 m/S 754 mmHg 90%
    08:00 +6°C° 0,6 mm 10 m/S 754 mmHg 89%
    09:00 +6°C° 0,6 mm 10 m/S 754 mmHg 89%
    10:00 +7°C° 0,6 mm 10 m/S 754 mmHg 88%
    11:00 +7°C° 0,3 mm 10 m/S 753 mmHg 86%
    12:00 +8°C° 0,3 mm 10 m/S 753 mmHg 85%
    13:00 +9°C° 0,3 mm 10 m/S 753 mmHg 83%
    14:00 +8°C° 0,2 mm 9 m/S 752 mmHg 84%
    15:00 +9°C° 0,2 mm 8 m/S 752 mmHg 85%
    16:00 +9°C° 0,2 mm 8 m/S 752 mmHg 86%
    17:00 +9°C° 0,5 mm 7 m/S 752 mmHg 87%
    18:00 +8°C° 0,5 mm 7 m/S 752 mmHg 87%
    19:00 +8°C° 0,5 mm 6 m/S 752 mmHg 88%
    20:00 +8°C° 2,4 mm 6 m/S 752 mmHg 89%
    21:00 +8°C° 2,4 mm 6 m/S 752 mmHg 89%
    22:00 +8°C° 2,4 mm 6 m/S 751 mmHg 90%
    23:00 +8°C° 1 mm 6 m/S 751 mmHg 90%
    Mehr zeigen